Regional Weather Roundup
Issued by NWS

Home | Current Version | Previous Version | Text Only | Print | Product List | Glossary Off
Versions: 1 2 3 4 5 6 7 8 9 10 11 12 13 14 15 16 17 18 19 20 21 22 23 24 25 26 27 28 29 30 31 32 33 34 35 36 37 38 39 40 41 42 43 44 45 46 47 48 49 50

000
ASUS45 KPSR 102010
RWRAZ

ARIZONA HOURLY REGIONAL WEATHER ROUNDUP
NATIONAL WEATHER SERVICE PHOENIX AZ
100 PM MST WED FEB 10 2016

NOTE: FAIR INDICATES FEW OR NO CLOUDS BELOW 12,000 FEET WITH NO
SIGNIFICANT WEATHER AND/OR OBSTRUCTIONS TO VISIBILITY.

AZZ001>003-036-102100-
NORTHWEST ARIZONA

CITY           SKY/WX    TMP DP  RH WIND       PRES   REMARKS
BULLHEAD CITY  SUNNY     72  27  18 N15G21    30.25F
KINGMAN        SUNNY     65  22  19 CALM      30.32F
$$

AZZ004>008-015-016-018-102100-
NORTH CENTRAL ARIZONA

CITY           SKY/WX    TMP DP  RH WIND       PRES   REMARKS
GRAND CANYON   SUNNY     63  12  13 S7        30.43F
WILLIAMS       MOSUNNY   63  12  14 CALM      30.47F
PRESCOTT       PTSUNNY   65  18  16 N3        30.36F
FLAGSTAFF      SUNNY     57   7  13 CALM      30.43F
PAYSON         SUNNY     66  25  20 VRB6      30.37F
PAGE           MOSUNNY   48  30  49 N3        30.41F
$$

AZZ009>014-017-102100-
NORTHEAST ARIZONA

CITY           SKY/WX    TMP DP  RH WIND       PRES   REMARKS
WINSLOW        SUNNY     54  23  30 CALM      30.41F
SAINT JOHNS    SUNNY     57  20  23 VRB5      30.39F
WINDOW ROCK    SUNNY     57   0  10 CALM      30.41F
SHOW LOW       SUNNY     55  23  28 CALM      30.42F
$$

AZZ023-102100-
GREATER PHOENIX AREA

CITY           SKY/WX    TMP DP  RH WIND       PRES   REMARKS
PHOENIX        MOSUNNY   81  25  12 SE5       30.18F
BUCKEYE        SUNNY     79  23  12 E13       30.21F
GLENDALE       MOSUNNY   79  27  14 CALM      30.21F
LUKE AFB       SUNNY     78  26  14 SE3       30.18F
DEER VALLEY    SUNNY     77  25  14 S6        30.19F
SCOTTSDALE     SUNNY     78  22  12 SW6       30.21F
MESA-FALCON    MOSUNNY  N/A N/A N/A NW5       30.19F
MESA-GATEWAY   MOSUNNY   75  28  17 W3        30.20F
CHANDLER       MOSUNNY   77  25  14 NE5       30.19F
$$

AZZ027-028-102100-
SOUTHWEST MARICOPA COUNTY AND PINAL COUNTY

CITY           SKY/WX    TMP DP  RH WIND       PRES   REMARKS
CASA GRANDE    SUNNY     79  28  15 N7        30.20F
$$

AZZ503-504-507>509-102100-
SOUTHEAST ARIZONA

CITY           SKY/WX    TMP DP  RH WIND       PRES   REMARKS
TUCSON         SUNNY     80  14   8 E6        30.23F
RYAN FIELD     SUNNY     81  23  12 E10       30.22F
NOGALES        SUNNY     76  12   8 VRB5      30.27F
SIERRA VISTA   SUNNY     69  12  11 VRB2      30.32F
DOUGLAS        SUNNY     70  15  12 E6        30.30F
SAFFORD        SUNNY     69  22  16 S8        30.29F
$$

AZZ020-021-025-026-031-102100-
SOUTHWEST ARIZONA

CITY           SKY/WX    TMP DP  RH WIND       PRES   REMARKS
YUMA           PTSUNNY   83  25  12 N10       30.16F
$$

CAZ031-033-041-043-047-048-061-102100-
SOUTHERN CALIFORNIA

CITY           SKY/WX    TMP DP  RH WIND       PRES   REMARKS
DOWNTOWN L.A.  SUNNY     86  32  14 CALM      30.12F
L.A. AIRPORT   MOSUNNY   83  25  12 CALM      30.13F
SAN DIEGO      PTSUNNY   82  26  13 CALM      30.13F
BURBANK        SUNNY     82  26  13 SE3       30.15F
ONTARIO        PTSUNNY   82  26  13 CALM      30.16F
RIVERSIDE      MOSUNNY   85  21   9 SE6       30.15F
PALM SPRINGS   PTSUNNY   83  25  12 E5        30.19F
EL CENTRO NAS  MOSUNNY   82  22  11 CALM      30.18F
IMPERIAL       SUNNY     81  26  13 W3        30.16F
BLYTHE         MOSUNNY   77  28  16 N6        30.20F
NEEDLES        MOSUNNY   75  29  18 NE7       30.25F
$$

NVZ020-UTZ003-102100-
SOUTHERN NEVADA-UTAH

CITY           SKY/WX    TMP DP  RH WIND       PRES   REMARKS
LAS VEGAS      MOSUNNY   65  27  23 CALM      30.28F
SALT LAKE CITY FOG       30  28  92 N10       30.51R VSB 1/2 WCI  21
$$

NMZ009-TXZ055-102100-
NEW MEXICO-WEST TEXAS

CITY           SKY/WX    TMP DP  RH WIND       PRES   REMARKS
ALBUQUERQUE    SUNNY     56  19  23 CALM      30.37F
EL PASO        SUNNY     66  17  15 CALM      30.32F
$$


........................KEY........................
SKY/WX - SKY CONDITION/WEATHER
TMP    - TEMPERATURE IN FAHRENHEIT
DP     - DEW POINT IN FAHRENHEIT
RH     - RELATIVE HUMIDITY IN PERCENT
WIND   - DIRECTION AND SPEED IN MILES PER HOUR (MPH)
VRB    - VARIABLE WIND DIRECTION
PRES   - MEAN SEA LEVEL PRESSURE IN INCHES OF MERCURY
         F - FALLING PRESSURE   R - RISING PRESSURE
         S - STEADY PRESSURE
VSB    - VISIBILITY IN MILES
HX     - HEAT INDEX IN FAHRENHEIT
WCI    - WIND CHILL INDEX IN FAHRENHEIT
TC     - TEMPERATURE IN CELSIUS WHICH IS ALSO KNOWN AS
         TEMPERATURE IN CENTIGRADE
AFB    - AIR FORCE BASE
         LUKE AFB IS LUKE AIR FORCE BASE
         DAVIS-MONTHAN IS DAVIS-MONTHAN AIR FORCE BASE
NAS    - NAVAL AIR STATION
         EL CENTRO NAS IS EL CENTRO NAVAL AIR STATION
N/A    - NOT AVAILABLE




USA.gov is the U.S. government's official web portal to all federal, state and local government web resources and services.